FW8865 Weather Reports


time (UTC)temp
C
wind
direction
speed
KPH
gust
KPH
rain 1hr
cm
rain 24hr
cm
rain mn
cm
humidity
%
barometer
mb
20260906232616 34 180 4.8 6.4 0.00 0.00 0.00 22 1011.8
20260906231618 34 158 1.6 3.2 0.00 0.00 0.00 22 1011.7
20260906230638 34 225 1.6 3.2 0.00 0.00 0.00 22 1012.0
20260906225618 33 315 1.6 3.2 0.00 0.00 0.00 22 1011.8
20260906224617 33 0.0 1.6 0.00 0.00 0.00 22 1011.8
20260906223618 34 225 3.2 4.8 0.00 0.00 0.00 22 1011.9
20260906222617 34 225 4.8 9.7 0.00 0.00 0.00 22 1011.9
20260906221618 34 225 3.2 4.8 0.00 0.00 0.00 22 1012.0
20260906220617 34 248 3.2 6.4 0.00 0.00 0.00 22 1012.6
20260906215618 34 158 1.6 3.2 0.00 0.00 0.00 23 1012.8
20260906214617 34 203 3.2 8.0 0.00 0.00 0.00 22 1012.9
20260906213617 34 225 3.2 11.3 0.00 0.00 0.00 23 1013.1
20260906212617 34 270 3.2 4.8 0.00 0.00 0.00 21 1013.2
20260906211658 34 248 3.2 6.4 0.00 0.00 0.00 21 1013.3
20260906210618 34 248 3.2 4.8 0.00 0.00 0.00 21 1013.6
20260906205617 34 225 1.6 6.4 0.00 0.00 0.00 21 1013.1
20260906204617 33 225 3.2 4.8 0.00 0.00 0.00 21 1013.6
20260906203617 33 180 3.2 6.4 0.00 0.00 0.00 21 1013.5
20260906202617 33 90 3.2 4.8 0.00 0.00 0.00 22 1013.6
20260906201617 32 135 1.6 6.4 0.00 0.00 0.00 22 1014.1
20260906200618 33 68 9.7 12.9 0.00 0.00 0.00 22 1013.8
20260906195617 33 90 3.2 4.8 0.00 0.00 0.00 22 1014.2
20260906194617 33 0 1.6 3.2 0.00 0.00 0.00 22 1014.5
20260906193617 32 45 3.2 3.2 0.00 0.00 0.00 22 1014.3
20260906192617 32 293 1.6 4.8 0.00 0.00 0.00 22 1014.3
20260906191617 31 23 3.2 4.8 0.00 0.00 0.00 23 1014.5
20260906190617 31 45 6.4 9.7 0.00 0.00 0.00 22 1015.0
20260906185617 32 68 6.4 8.0 0.00 0.00 0.00 22 1014.9
20260906184639 31 113 3.2 4.8 0.00 0.00 0.00 23 1015.5
20260906183657 31 113 4.8 8.0 0.00 0.00 0.00 23 1015.6
20260906182718 31 68 1.6 3.2 0.00 0.00 0.00 24 1015.7
20260906181617 31 90 1.6 3.2 0.00 0.00 0.00 25 1015.9
20260906180618 30 90 1.6 3.2 0.00 0.00 0.00 26 1016.4
20260906175617 30 90 3.2 4.8 0.00 0.00 0.00 27 1016.0
20260906174657 30 45 3.2 4.8 0.00 0.00 0.00 28 1016.2
20260906173617 29 45 4.8 8.0 0.00 0.00 0.00 30 1016.8
20260906172617 28 90 3.2 4.8 0.00 0.00 0.00 30 1016.4
20260906171617 28 68 3.2 8.0 0.00 0.00 0.00 31 1016.6
20260906170617 28 68 3.2 4.8 0.00 0.00 0.00 32 1017.0
20260906165617 27 45 4.8 6.4 0.00 0.00 0.00 32 1016.7
20260906164617 27 68 4.8 8.0 0.00 0.00 0.00 32 1016.8
20260906163616 27 68 4.8 6.4 0.00 0.00 0.00 33 1017.2
20260906162617 27 45 4.8 6.4 0.00 0.00 0.00 33 1016.9
20260906161617 27 45 4.8 6.4 0.00 0.00 0.00 33 1016.8
20260906160616 26 45 4.8 6.4 0.00 0.00 0.00 33 1017.5
20260906155617 27 45 4.8 8.0 0.00 0.00 0.00 33 1017.1
20260906154617 27 0 3.2 4.8 0.00 0.00 0.00 33 1017.0
20260906153616 26 338 1.6 3.2 0.00 0.00 0.00 34 1017.1
20260906152616 25 338 1.6 3.2 0.00 0.00 0.00 34 1017.1
20260906151617 25 315 1.6 3.2 0.00 0.00 0.00 35 1017.2
20260906150616 24 315 3.2 6.4 0.00 0.00 0.00 35 1017.3
20260906145639 24 0 3.2 6.4 0.00 0.00 0.00 35 1016.9
20260906144617 24 315 3.2 6.4 0.00 0.00 0.00 35 1016.9
20260906143616 24 0 3.2 6.4 0.00 0.00 0.00 35 1017.1
20260906142616 23 338 1.6 4.8 0.00 0.00 0.00 37 1017.1
20260906141657 23 45 1.6 3.2 0.00 0.00 0.00 37 1016.9
20260906140616 22 45 3.2 4.8 0.00 0.00 0.00 37 1017.1
20260906135617 22 338 3.2 3.2 0.00 0.00 0.00 38 1016.7
20260906134616 21 293 1.6 3.2 0.00 0.00 0.00 38 1016.3
20260906133636 21 315 1.6 3.2 0.00 0.00 0.00 38 1016.4
20260906132616 21 315 3.2 4.8 0.00 0.00 0.00 39 1016.3
20260906131616 21 315 3.2 6.4 0.00 0.00 0.00 39 1016.6
20260906130639 20 315 1.6 4.8 0.00 0.00 0.00 40 1016.5
20260906125616 20 0.0 1.6 0.00 0.00 0.00 40 1016.1
20260906124616 20 23 1.6 3.2 0.00 0.00 0.00 41 1015.9
20260906123616 20 0.0 1.6 0.00 0.00 0.00 40 1016.1
20260906122616 20 0.0 3.2 0.00 0.00 0.00 39 1016.3
20260906121616 21 315 1.6 4.8 0.00 0.00 0.00 39 1016.0
20260906120618 21 0.0 0.0 0.00 0.00 0.00 38 1016.3
20260906115616 21 338 1.6 1.6 0.00 0.00 0.00 37 1015.9
20260906114616 21 0.0 1.6 0.00 0.00 0.00 38 1015.9
20260906113636 21 315 1.6 3.2 0.00 0.00 0.00 38 1015.7
20260906112616 21 0.0 1.6 0.00 0.00 0.00 39 1016.0
20260906111618 21 0.0 1.6 0.00 0.00 0.00 38 1016.1
20260906110618 22 0 1.6 3.2 0.00 0.00 0.00 38 1015.6
20260906105616 22 0.0 0.0 0.00 0.00 0.00 39 1015.6
20260906104618 22 0.0 0.0 0.00 0.00 0.00 39 1015.6
20260906103618 22 0.0 0.0 0.00 0.00 0.00 38 1015.2
20260906102617 22 338 1.6 3.2 0.00 0.00 0.00 38 1015.2
20260906101617 22 0.0 3.2 0.00 0.00 0.00 38 1015.1
20260906100618 22 338 1.6 3.2 0.00 0.00 0.00 38 1015.1
20260906095617 22 0.0 0.0 0.00 0.00 0.00 38 1015.3
20260906094618 22 0.0 0.0 0.00 0.00 0.00 38 1015.1
20260906093617 23 0.0 0.0 0.00 0.00 0.00 37 1015.3
20260906092618 23 0.0 1.6 0.00 0.00 0.00 37 1015.2
20260906091618 23 0.0 1.6 0.00 0.00 0.00 36 1015.2
20260906090618 24 315 1.6 3.2 0.00 0.00 0.00 36 1014.8
20260906085638 24 293 3.2 4.8 0.00 0.00 0.00 36 1014.7
20260906084617 24 293 1.6 3.2 0.00 0.00 0.00 36 1014.7
20260906083617 23 338 3.2 4.8 0.00 0.00 0.00 36 1015.2
20260906082617 23 45 1.6 3.2 0.00 0.00 0.00 36 1015.2
20260906081617 23 45 1.6 3.2 0.00 0.00 0.00 36 1015.3
20260906080617 23 0.0 0.0 0.00 0.00 0.00 36 1015.1
20260906075617 23 0.0 1.6 0.00 0.00 0.00 36 1015.2
20260906074617 23 0.0 0.0 0.00 0.00 0.00 36 1015.3
20260906073617 23 0.0 3.2 0.00 0.00 0.00 36 1015.3
20260906072617 23 0.0 0.0 0.00 0.00 0.00 37 1015.4
20260906071617 23 68 1.6 3.2 0.00 0.00 0.00 37 1015.7
20260906070617 23 0.0 0.0 0.00 0.00 0.00 37 1015.1
20260906065637 24 0.0 0.0 0.00 0.00 0.00 36 1015.4
20260906064637 24 0.0 0.0 0.00 0.00 0.00 37 1015.3
20260906063617 23 0.0 1.6 0.00 0.00 0.00 38 1015.1
20260906062617 24 23 1.6 3.2 0.00 0.00 0.00 37 1015.1
20260906061617 25 0 1.6 3.2 0.00 0.00 0.00 36 1014.9
20260906060659 25 315 3.2 4.8 0.00 0.00 0.00 35 1014.1
20260906055657 25 315 4.8 6.4 0.00 0.00 0.00 34 1015.0
20260906054637 25 315 4.8 6.4 0.00 0.00 0.00 34 1014.9
20260906053637 25 293 4.8 8.0 0.00 0.00 0.00 34 1014.2
20260906052617 26 293 3.2 4.8 0.00 0.00 0.00 34 1014.3
20260906051617 26 315 4.8 8.0 0.00 0.00 0.00 34 1014.2
20260906050617 26 315 4.8 6.4 0.00 0.00 0.00 34 1014.2
20260906045617 26 315 4.8 8.0 0.00 0.00 0.00 34 1014.9
20260906044616 26 315 3.2 6.4 0.00 0.00 0.00 34 1014.9
20260906043617 26 293 3.2 6.4 0.00 0.00 0.00 33 1014.2
20260906042617 26 293 4.8 6.4 0.00 0.00 0.00 33 1014.2
20260906041616 26 315 1.6 4.8 0.00 0.00 0.00 33 1014.3
20260906040617 26 315 3.2 6.4 0.00 0.00 0.00 33 1014.2
20260906035617 27 315 3.2 6.4 0.00 0.00 0.00 32 1015.0
20260906034617 27 315 3.2 4.8 0.00 0.00 0.00 32 1014.9
20260906033616 27 293 3.2 4.8 0.00 0.00 0.00 31 1014.6
20260906032616 27 293 4.8 6.4 0.00 0.00 0.00 32 1014.4
20260906031616 27 315 3.2 4.8 0.00 0.00 0.00 31 1014.3
20260906030616 27 293 3.2 6.4 0.00 0.00 0.00 31 1013.7
20260906025657 27 315 4.8 8.0 0.00 0.00 0.00 31 1013.9
20260906024616 28 293 4.8 8.0 0.00 0.00 0.00 31 1013.8
20260906023618 28 270 3.2 6.4 0.00 0.00 0.00 31 1013.4
20260906022616 28 293 3.2 4.8 0.00 0.00 0.00 31 1013.3
20260906021617 28 293 3.2 4.8 0.00 0.00 0.00 31 1012.9
20260906020616 28 270 3.2 6.4 0.00 0.00 0.00 31 1013.0
20260906015616 29 293 3.2 4.8 0.00 0.00 0.00 31 1013.8
20260906014616 30 315 3.2 4.8 0.00 0.00 0.00 30 1013.7
20260906013616 30 293 3.2 3.2 0.00 0.00 0.00 30 1013.4
20260906012636 30 315 1.6 3.2 0.00 0.00 0.00 30 1012.9
20260906011616 30 293 3.2 6.4 0.00 0.00 0.00 30 1013.1
20260906010636 31 293 1.6 3.2 0.00 0.00 0.00 30 1013.0
20260906005616 31 315 1.6 4.8 0.00 0.00 0.00 29 1013.7
20260906004638 31 315 3.2 4.8 0.00 0.00 0.00 29 1013.9
20260906003616 31 270 4.8 6.4 0.00 0.00 0.00 29 1013.8
20260906002616 31 338 3.2 4.8 0.00 0.00 0.00 29 1013.6
20260906001617 31 315 1.6 6.4 0.00 0.00 0.00 29 1013.5
20260906000636 32 315 6.4 11.3 0.00 0.00 0.00 29 1013.6
20260905235616 32 23 1.6 4.8 0.00 0.00 0.00 28 1013.4
20260905234616 32 248 3.2 6.4 0.00 0.00 0.00 29 1013.5
20260905233616 32 293 3.2 8.0 0.00 0.00 0.00 29 1013.7